OBJECT D, 61241

Orbit data source: Space-Track

You're viewing an Uncataloged Satellite

Recently launched and/or uncataloged satellites may have evolving metadata. Metadata may include but not limited to: Owner, Maufacturer, Bus, Motor, and Mission.

OBJECT D, 61241 is a satellite owned by Yunyao yuhang (CN) in SSO that was launched on Tue, 24 Sep 2024 UTC via a LIJIAN-1 launch vehicle from the Jiuquan Satellite Launch Center, China (JSC). Unknown objects in Earth's orbit typically refer to objects detected orbiting the Earth but have not yet been identified or cataloged. These objects could be anything from previously untracked satellites, spent rocket stages, debris from satellite collisions, or even natural meteoroids temporarily captured by Earth's gravity.

Loading next visibility...
Identifier
61241, 2024-174D
Orbit
SSO
Last TLE update
8 hours ago
Origin
Flag of CNYYAO (CN / PRC)
Manufacturer
Changguang WJ
Mission
Operational Commercial Weather
Bus & Motor
YY-1, Unknown motor
Mass
~50 kg wet, ~50 kg dry
Launch date (UTC)
2024-09-24 (10 months ago)
Launch vehicle
LIJIAN-1
Launch site
Jiuquan Satellite Launch Center, China (JSC)
Object type
Unknown
Shape & HBR
Box + 1 Pan, 5 m
Radar Cross Section
5.339 m², Medium (>0.1 m² and < 1m²)

Expand to show TLE details & history

TLE from 8 hours ago
0 OBJECT D
1 61241U 24174D   25194.18815156  .00005578  00000-0  23876-3 0  9992
2 61241  97.4448 201.8216 0013105 354.2892   5.8193 15.23132840 44200
Epoch: 2025-07-13T04:30Z
TLE epoch observation values (Epoch: 2025-07-13T04:30:56.294Z)
Latitude
-0.00005°
Longitude
-157.22791°
Altitude
490.527 km
Speed
7.625 km/s
True Right ascension
13h 27m 17s
True Declination
0° 00' 00"
Sunlit
Object was in daylight at epoch
Visualization orbit readout
Latitude
-54.88162°
Longitude
-146.264°
Altitude
511.752 km
Speed
7.61 km/s
Apparent Right ascension
13h 18m 13s
Apparent Declination
-48° 07' 38"
Sunlit
Object is in full shadow
Visualization observer readout
Local Sidereal Time
00:35:27
Azimuth
219.497° SW
Elevation
-78.772°
Doppler factor
1
Orbital elements
Apogee altitude
502.366 km
Perigee altitude
484.356 km
Semi-major axis
6,871.498 km
Eccentricity
0.00131
Inclination
97.4448°
RAAN
201.8216°
Arg. of periapsis
354.2892°
True anomaly
Unknown
Mean anomaly
5.8193°
Eccentric anomaly
Unknown
Mean motion
3.81036 °/min
Orbital period
94.48 mins
BSTAR
0.00023876
Loading maneuver chart data...
Loading SW <> Apogee altitude chart data...
Loading historical data...
Loading historical data...
Loading historical data...
Loading historical data...
Loading historical data...
Loading historical data...
Loading historical data...

OBJECT D Visibility forecast

Observer location: undefined°, undefined°

Span
Click to sort rows by Start time (UTC) header in descending order
Start Az.
Max El. time (UTC)
Max El. Az.
Max El.
End time (UTC)
End Az.
5 mins2025-07-13 12:58:24.650Z36.288° NE2025-07-13 13:00:24.650Z79.969° E30.748°2025-07-13 13:03:24.650Z161.544° S
4 mins2025-07-14 01:09:24.650Z218.43° SW2025-07-14 01:11:24.650Z276.213° WNW26.298°2025-07-14 01:13:24.650Z318.593° NNW
|